Retour au catalogue

STARLINK-34457

ActifCommunicationsVLEO
NORAD 64368·PAYLOAD·🇺🇸 United States

Lancé Jun 13, 2025 depuis Vandenberg Space Force Base

Loading…

Prochains Passages (prochaines 24 heures)

TLE

FraisSource: CelesTrak SupGP

Époque: Sep 15, 2026, 02:34 UTC

1 64368C 25126AA  26258.10743056 -.00016173  00000+0 -56279-3 0  2581
2 64368  70.0009 275.0850 0003397 262.9590 304.2701 15.29575113    14

Suivez STARLINK-34457 en temps réel avec AllMySat

Download on the App Store